TimeMDT,TemperatureF,Dew PointF,Humidity,Sea Level PressureIn,VisibilityMPH,Wind Direction,Wind SpeedMPH,Gust SpeedMPH,PrecipitationIn,Events,Conditions,WindDirDegrees,DateUTC
12:15 AM,42.8,21.2,42,29.96,10.0,Calm,Calm,-,N/A,,Clear,0,2013-04-03 06:15:00
12:55 AM,41.0,19.4,42,29.97,10.0,Calm,Calm,-,N/A,,Clear,0,2013-04-03 06:55:00
1:15 AM,39.2,17.6,42,29.97,10.0,Calm,Calm,-,N/A,,Clear,0,2013-04-03 07:15:00
1:35 AM,44.6,19.4,37,29.97,10.0,Calm,Calm,-,N/A,,Clear,0,2013-04-03 07:35:00
1:55 AM,41.0,19.4,42,29.96,10.0,WNW,5.8,-,N/A,,Clear,290,2013-04-03 07:55:00
2:15 AM,44.6,19.4,37,29.96,10.0,NW,6.9,-,N/A,,Clear,310,2013-04-03 08:15:00
2:35 AM,46.4,21.2,37,29.97,10.0,NW,9.2,-,N/A,,Clear,310,2013-04-03 08:35:00
2:55 AM,50.0,23.0,35,29.97,10.0,WNW,8.1,-,N/A,,Clear,300,2013-04-03 08:55:00
3:15 AM,50.0,24.8,37,29.97,10.0,NW,5.8,-,N/A,,Clear,320,2013-04-03 09:15:00
3:35 AM,51.8,26.6,38,29.97,10.0,NW,8.1,-,N/A,,Clear,310,2013-04-03 09:35:00
3:55 AM,53.6,28.4,38,29.97,10.0,NW,8.1,20.7,N/A,,Clear,320,2013-04-03 09:55:00
4:15 AM,51.8,26.6,38,29.97,10.0,NNW,8.1,16.1,N/A,,Clear,330,2013-04-03 10:15:00
4:35 AM,51.8,28.4,41,29.97,10.0,NW,8.1,-,N/A,,Clear,310,2013-04-03 10:35:00
4:55 AM,50.0,26.6,40,29.98,10.0,NNW,5.8,-,N/A,,Clear,330,2013-04-03 10:55:00
5:15 AM,51.8,28.4,41,29.98,10.0,WNW,9.2,-,N/A,,Clear,300,2013-04-03 11:15:00
5:35 AM,51.8,28.4,41,29.98,10.0,WSW,6.9,-,N/A,,Clear,250,2013-04-03 11:35:00
5:55 AM,50.0,28.4,43,29.98,10.0,NW,5.8,-,N/A,,Clear,320,2013-04-03 11:55:00
6:15 AM,46.4,26.6,46,29.99,10.0,NNW,4.6,-,N/A,,Clear,340,2013-04-03 12:15:00
6:35 AM,42.8,24.8,49,30.00,10.0,North,3.5,-,N/A,,Clear,360,2013-04-03 12:35:00
7:15 AM,41.0,24.8,53,30.02,10.0,WNW,4.6,-,N/A,,Clear,300,2013-04-03 13:15:00
7:35 AM,44.6,28.4,53,30.02,10.0,WNW,3.5,-,N/A,,Clear,300,2013-04-03 13:35:00
7:55 AM,46.4,28.4,50,30.03,10.0,NW,3.5,-,N/A,,Clear,310,2013-04-03 13:55:00
8:15 AM,48.2,28.4,46,30.03,10.0,NW,3.5,-,N/A,,Partly Cloudy,320,2013-04-03 14:15:00
8:35 AM,48.2,28.4,46,30.04,10.0,NNW,3.5,-,N/A,,Mostly Cloudy,330,2013-04-03 14:35:00
8:55 AM,51.8,30.2,44,30.04,10.0,North,3.5,-,N/A,,Scattered Clouds,10,2013-04-03 14:55:00
9:15 AM,53.6,30.2,41,30.04,10.0,North,5.8,-,N/A,,Partly Cloudy,360,2013-04-03 15:15:00
9:35 AM,51.8,30.2,44,30.04,10.0,Calm,Calm,-,N/A,,Scattered Clouds,0,2013-04-03 15:35:00
9:55 AM,51.8,26.6,38,30.04,10.0,NE,10.4,-,N/A,,Partly Cloudy,40,2013-04-03 15:55:00
10:15 AM,53.6,26.6,35,30.05,10.0,NNE,12.7,-,N/A,,Clear,30,2013-04-03 16:15:00
10:35 AM,51.8,24.8,35,30.05,10.0,NNE,10.4,-,N/A,,Clear,20,2013-04-03 16:35:00
10:55 AM,53.6,24.8,33,30.06,10.0,North,10.4,-,N/A,,Scattered Clouds,10,2013-04-03 16:55:00
11:15 AM,53.6,24.8,33,30.06,10.0,North,8.1,-,N/A,,Partly Cloudy,360,2013-04-03 17:15:00
11:35 AM,55.4,26.6,33,30.06,10.0,North,10.4,-,N/A,,Partly Cloudy,10,2013-04-03 17:35:00
11:55 AM,55.4,26.6,33,30.06,10.0,North,12.7,-,N/A,,Clear,10,2013-04-03 17:55:00
12:55 PM,57.2,26.6,31,30.06,10.0,NNW,5.8,-,N/A,,Mostly Cloudy,340,2013-04-03 18:55:00
1:15 PM,57.2,26.6,31,30.05,10.0,North,6.9,-,N/A,,Clear,360,2013-04-03 19:15:00
1:35 PM,59.0,26.6,29,30.05,10.0,North,8.1,-,N/A,,Clear,350,2013-04-03 19:35:00
1:55 PM,59.0,26.6,29,30.05,10.0,North,11.5,16.1,N/A,,Clear,10,2013-04-03 19:55:00
2:15 PM,60.8,26.6,27,30.05,10.0,NE,9.2,17.3,N/A,,Mostly Cloudy,40,2013-04-03 20:15:00
3:15 PM,60.8,24.8,25,30.05,10.0,North,15.0,-,N/A,,Mostly Cloudy,360,2013-04-03 21:15:00
3:35 PM,57.2,24.8,29,30.05,10.0,North,17.3,-,N/A,,Overcast,10,2013-04-03 21:35:00
3:55 PM,57.2,24.8,29,30.05,10.0,North,9.2,-,N/A,,Overcast,10,2013-04-03 21:55:00
4:15 PM,57.2,24.8,29,30.05,10.0,Calm,Calm,-,N/A,,Overcast,0,2013-04-03 22:15:00
4:35 PM,57.2,24.8,29,30.05,10.0,NNE,4.6,-,N/A,,Overcast,30,2013-04-03 22:35:00
4:55 PM,57.2,26.6,31,30.05,10.0,NW,10.4,-,N/A,,Overcast,320,2013-04-03 22:55:00
5:15 PM,55.4,26.6,33,30.06,10.0,NNE,8.1,19.6,N/A,,Overcast,20,2013-04-03 23:15:00
5:35 PM,57.2,26.6,31,30.06,10.0,WNW,3.5,-,N/A,,Overcast,290,2013-04-03 23:35:00
5:55 PM,55.4,26.6,33,30.07,10.0,North,11.5,-,N/A,,Overcast,350,2013-04-03 23:55:00
6:15 PM,53.6,28.4,38,30.08,10.0,North,15.0,-,N/A,,Overcast,10,2013-04-04 00:15:00
6:35 PM,53.6,28.4,38,30.09,10.0,North,10.4,-,N/A,,Overcast,360,2013-04-04 00:35:00
6:55 PM,53.6,30.2,41,30.10,10.0,NW,10.4,-,N/A,,Overcast,320,2013-04-04 00:55:00
7:36 PM,51.8,30.2,44,30.09,10.0,NW,3.5,-,N/A,,Partly Cloudy,320,2013-04-04 01:36:00
8:15 PM,48.2,28.4,46,30.08,10.0,SSW,3.5,-,N/A,,Clear,200,2013-04-04 02:15:00
8:35 PM,46.4,28.4,50,30.08,10.0,Calm,Calm,-,N/A,,Clear,0,2013-04-04 02:35:00
8:55 PM,46.4,32.0,57,30.09,10.0,WSW,5.8,-,N/A,,Clear,250,2013-04-04 02:55:00
9:15 PM,46.4,30.2,53,30.09,10.0,SSW,4.6,-,N/A,,Clear,200,2013-04-04 03:15:00
9:35 PM,42.8,28.4,57,30.09,10.0,South,8.1,-,N/A,,Clear,170,2013-04-04 03:35:00
10:15 PM,41.0,28.4,61,30.09,10.0,SSE,6.9,-,N/A,,Clear,150,2013-04-04 04:15:00
10:35 PM,42.8,30.2,61,30.09,10.0,South,5.8,-,N/A,,Clear,180,2013-04-04 04:35:00
10:55 PM,41.0,28.4,61,30.08,10.0,SSE,4.6,-,N/A,,Clear,150,2013-04-04 04:55:00
11:15 PM,41.0,28.4,61,30.09,10.0,South,5.8,-,N/A,,Clear,170,2013-04-04 05:15:00